Regional Weather Roundup
Issued by NWS Upton, NY

Current Version | Previous Version | Graphics & Text | Print | Product List | Glossary Off
Versions: 1 2 3 4 5 6 7 8 9 10 11 12 13 14 15 16 17 18 19 20 21 22 23 24 25 26 27 28

000
ASUS41 KOKX 230908
RWROKX

REGIONAL WEATHER ROUNDUP
NATIONAL WEATHER SERVICE NEW YORK NY
400 AM EST THU NOV 23 2017

NOTE: "FAIR" INDICATES FEW OR NO CLOUDS BELOW 12,000 FEET WITH NO
SIGNIFICANT WEATHER AND/OR OBSTRUCTIONS TO VISIBILITY.

NYZ071-072-176-178-NJZ106-104-231000-
NEW YORK CITY METRO AREA

CITY           SKY/WX    TMP DP  RH WIND       PRES   REMARKS
Central Park   CLEAR     33  19  56 VRB5      30.10F WCI  29
Bronx Bot Gard   N/A     32  19  59 NW10      30.09R WCI  24
Bronx Lehman C   N/A     32  32 100 NW10        N/A  WCI  24
LaGuardia APRT CLEAR     35  22  58 NW17G25   30.08F WCI  25
Queens College   N/A     34  32  93 NW10        N/A  WCI  26
Kennedy INTL   CLEAR     32  20  61 NW13G22   30.09F WCI  22
Breezy Point   NOT AVBL
Brooklyn Coll    N/A     34  32  93 NW12        N/A  WCI  25
Staten Island    N/A     32  32 100 NW10        N/A  WCI  24
Newark/Liberty CLEAR     33  19  56 NW10      30.09F WCI  25
Teterboro      CLEAR     32  19  58 NW8       30.08F WCI  25
$$

NYZ177-179-078>081-231000-
LONG ISLAND NEW YORK

CITY           SKY/WX    TMP DP  RH WIND       PRES   REMARKS
Jones Beach    NOT AVBL
Wantagh          N/A     32  32 100 NW7         N/A  WCI  26
Matinecock PT    N/A     36 N/A N/A NW18        N/A  WCI  25
Farmingdale    PTCLDY    32  21  64 NW6       30.07S WCI  26
MacArthur/ISP  CLEAR     34  25  69 NW8       30.05S WCI  27
Shirley        CLEAR     33  25  72 NW8       30.06S WCI  26
Mt Sinai Harb  NOT AVBL
Westhampton    CLEAR     33  23  66 NW7       30.06S WCI  27
East Hampton   FAIR      34  24  67 NW9       30.04R WCI  26
Southold         N/A     36  32  87 NW12        N/A  WCI  27
Montauk          N/A     38  25  59 NW13G20   30.04R WCI  30
$$

NYZ052-065-067-231000-
HUDSON VALLEY

CITY           SKY/WX    TMP DP  RH WIND       PRES   REMARKS
White Plains   CLEAR     31  20  63 NW13      30.05F WCI  21
Larchmont Harb NOT AVBL
Croton On Huds   N/A     34 N/A N/A NW9         N/A  WCI  26
Somers           N/A     30  32 100 W2          N/A
Brewster         N/A     30  32 100 W5          N/A  WCI  25
Newburgh       NOT AVBL
Montgomery     CLEAR     30  18  60 NW3       30.09S
Suffern          N/A     30  32 100 NW6         N/A  WCI  24
Poughkeepsie   CLEAR     29  17  61 NW6       30.10R WCI  23
Albany         CLOUDY    31  20  63 NW16      30.11R WCI  20
$$

NJZ001-105-106-008-010-013-015-019>022-104-231000-
NEW JERSEY

CITY           SKY/WX    TMP DP  RH WIND       PRES   REMARKS
Newark/Liberty CLEAR     33  19  56 NW10      30.09F WCI  25
Teterboro      CLEAR     32  19  58 NW8       30.08F WCI  25
Caldwell       CLEAR     31  18  58 NW5       30.09F WCI  26
Somerville     CLEAR     31  18  58 NW9       30.09F WCI  23
Linden         FAIR      32  19  58 CALM      30.10S
Perth Amboy    NOT AVBL
Sussex         CLEAR     30  17  58 N10       30.09F WCI  21
Andover          N/A     28  18  66 VRB6      30.09F WCI  22
Trenton        CLEAR     31  18  58 NW3       30.11S
Millville      CLEAR     28  25  88 W5        30.14S WCI  23
Atlantic City  CLEAR     31  23  72 W3        30.13R
Wrightstown    CLEAR     29  20  68 NW6       30.08S WCI  23
Toms River     CLEAR     29  22  75 NW5       30.11F WCI  24
Belmar         CLEAR     30  21  69 NW7       30.11S WCI  23
$$

PAZ047>061-062-071-231000-
EASTERN PENNSYLVANIA

CITY           SKY/WX    TMP DP  RH WIND       PRES   REMARKS
Philadelphia   CLEAR     33  19  56 NW3       30.14F
Allentown      CLEAR     29  16  58 NW6       30.11F WCI  23
Scranton       CLOUDY    26  16  65 NW6       30.12S WCI  19
$$

CTZ002-004>006-009-010-012-RIZ004-006-007-MAZ004-011-015-231000-
SOUTHERN NEW ENGLAND
 IN CT

CITY           SKY/WX    TMP DP  RH WIND       PRES   REMARKS
Bradley INTL   PTCLDY    29  21  72 W3        30.04R
Hartford       CLEAR     33  23  66 NW5       30.05R WCI  29
Danbury        CLEAR     31  21  66 W5        30.07S WCI  26
Wtrbury/Oxford CLEAR     30  22  72 NW9       30.05R WCI  22
Norwalk Harbor NOT AVBL
Bridgeport     CLEAR     33  23  66 W3        30.07S
Meriden        CLEAR     31  23  72 CALM      30.06R
New Haven      CLEAR     35  23  61 NW8       30.06R WCI  29
Chester        FAIR      30  23  74 NW7G13    30.02S WCI  23
Groton         CLEAR     33  22  63 W7        30.03S WCI  27
Wilimantic     CLEAR     33  21  61 VRB3      30.03R

 IN RI

CITY           SKY/WX    TMP DP  RH WIND       PRES   REMARKS
Providence     PTCLDY    34  23  64 NW10      30.02R WCI  26
Block Island   CLEAR     35  23  61 NW10G18   30.02R WCI  27
Westerly       CLEAR     34  23  64 NW7       30.02S WCI  28
 IN MA

CITY           SKY/WX    TMP DP  RH WIND       PRES   REMARKS
Boston         CLEAR     34  22  61 W13       29.99R WCI  25
Worcester      CLEAR     28  17  63 NW10      29.95R WCI  19
Westfield      CLEAR     31  20  63 NW8       30.02S WCI  23
Provincetown   PTCLDY    37  26  64 NW17G24   29.97R WCI  27
Nantucket      CLEAR     38  29  70 NW10      29.98R WCI  31
$$

ANZ330-335-338-340-345-350-353-355-231000-
COASTAL MARINE OBSERVATIONS


STATION/POSITION TIME  SKY/WX   TEMP    WIND        PRES    VSBY  WAVE
                                AIR SEA DIR/SP/G                  HT/PER
                 (UTC)          (F)     (DEG/KT/KT) (MB)    (MI)  (FT/S)
NY HARB ENTRANCE 0850            37 56  320/ 19/ 23 1017.6          3/ 4
20 S FIRE ISLAND 0850            38 56  330/ 17/ 21 1017.9          5/10
GREAT SOUTH BAY  0830            36 44  310/ 10/ 16   N/A
HUDSON CANYON    0750            43 58  330/ 16/ 19 1017.1          8/ 7
KINGS POINT      0836            35 49   10/ 15/ 17 1019.5
EXECUTION ROCKS  0830            36     310/ 14/ 17   N/A
WESTERN LI SOUND 0749            36     300/ 14/ 19   N/A           1
CENTRAL LI SOUND NOT AVBL
ROBBINS REEF     0848            34     320/  9/ 13 1019.5
$$


>>>>>>>>>>>>>>>>>>>>>>>>>>>> KEY <<<<<<<<<<<<<<<<<<<<<<<<<<<
>                                                          <
>     SKY/WX - Sky Condition/Present Weather               <
>     TMP    - Temperature in Fahrenheit                   <
>     DP     - Dew Point in Fahrenheit                     <
>     RH     - Relative Humidity in Percent                <
>     WIND   - Direction (from) and Speed in MPH           <
>     PRES   - Mean Sea Level Pressure (inches of Hg)      <
>     WCI    - Wind Chill Index                            <
>     VSB    - VISIBILITY IN MILES                         <
>     HX     - HEAT INDEX                                  <
>     TC     - TEMPERATURE IN CELSIUS                      <
>     VRB    - VARIABLE WIND DIRECTION                     <
>                                                          <
>>>>>>>>>>>>>>>>>>>>>>>>>>>> KEY <<<<<<<<<<<<<<<<<<<<<<<<<<<




USA.gov is the U.S. government's official web portal to all federal, state and local government web resources and services.